Regional Weather Roundup
Issued by NWS

Home | Current Version | Previous Version | Text Only | Print | Product List | Glossary Off
Versions: 1 2 3 4 5 6 7 8 9 10 11 12 13 14 15 16 17 18 19 20 21 22 23 24 25 26 27 28 29 30 31 32 33 34 35 36 37 38 39 40 41 42 43 44 45 46 47 48 49 50

000
ASUS43 KIND 260059
RWRIN

WEATHER ROUNDUP FOR INDIANA
NATIONAL WEATHER SERVICE INDIANAPOLIS IN
900 PM EDT THU AUG 25 2016

NOTE: "FAIR" INDICATES FEW OR NO CLOUDS BELOW 12,000 FEET WITH NO
SIGNIFICANT WEATHER AND/OR OBSTRUCTIONS TO VISIBILITY.

* - STATION DOES NOT REPORT WEATHER SUCH AS PRECIPITATION OR FOG.

+ - STATION NOT QUALITY CONTROLLED BY THE NATIONAL WEATHER SERVICE.
    USE DATA WITH CAUTION...ESPECIALLY DEWPOINT AND RELATIVE
    HUMIDITY OBSERVATIONS.

INZ001>003-010>013-019-020-260200-
NORTHWEST INDIANA

CITY           SKY/WX    TMP DP  RH WIND       PRES   REMARKS
GARY /AIRPORT/ PTCLDY    75  72  88 CALM      30.05R
KNOX *+        CLOUDY    73  57  56 CALM      30.03R
MONTICELLO +   PTCLDY    77  68  72 W3        30.03R
RENSSELAER +   DRIZZLE   73  72  94 NW3       30.05R

$$

LMZ046-743>745-260200-
SOUTHERN LAKE MICHIGAN

STATION/POSITION TIME  TEMP    WIND        PRES    WAVE
                       AIR SEA DIR/SP/G            HT
                 (UTC) (F)     (DEG/KT/KT) (MB)    (FT)
BURNS HARBOR     0000   75      50/  9/  9 1016.9S
MICHIGAN CITY    0020   74      40/  5/  5   N/A
5NW MICH CITY    0000   74 74   60/  6/  6   N/A     1

$$

INZ004-005-014>016-021>024-260200-
NORTH CENTRAL INDIANA

CITY           SKY/WX    TMP DP  RH WIND       PRES   REMARKS
ELKHART        CLEAR     75  68  78 NW5       30.04S
GOSHEN         CLEAR     74  67  78 NW6       30.04R
PERU/GRISSOM   CLEAR     76  72  86 W6        30.03R
SOUTH BEND     CLOUDY    73  68  84 CALM      30.05R

$$

INZ006>009-017-018-025>027-260200-
NORTHEAST INDIANA

CITY           SKY/WX    TMP DP  RH WIND       PRES   REMARKS
ANGOLA *+      CLEAR     75  68  78 CALM      30.04S
FORT WAYNE     PTCLDY    75  70  84 SW3       30.04R

$$

INZ028-029-035-036-043>045-051>053-260200-
WEST CENTRAL INDIANA

CITY           SKY/WX    TMP DP  RH WIND       PRES   REMARKS
CRAWFORDSVL +  MOCLDY    74  74 100 CALM      30.06R
GREENCASTLE +  CLEAR     77  75  94 CALM      30.06S
LAFAYETTE      MOCLDY    76  74  93 CALM      30.04R
TERRE HAUTE    CLOUDY    82  74  76 CALM      30.04R

$$

INZ030>032-037>040-046>048-054>057-064-065-260200-
CENTRAL INDIANA

CITY           SKY/WX    TMP DP  RH WIND       PRES   REMARKS
COLUMBUS       CLEAR     81  77  89 CALM      30.04S
INDIANAPOLIS   PTCLDY    81  71  71 W6        30.04S
-EAGLE CREEK   CLEAR     81  72  74 CALM      30.04S
MT COMFORT *+  CLEAR     77  72  83 W5        30.06R
SHELBYVILLE    CLEAR     79  73  82 SW3       30.04S

$$

INZ033-034-041-042-049-050-058-059-260200-
EAST CENTRAL INDIANA

CITY           SKY/WX    TMP DP  RH WIND       PRES   REMARKS
MUNCIE         CLEAR     78  71  79 W5        30.05R

$$

INZ060-061-067>069-081>083-085>088-260200-
SOUTHWEST INDIANA

CITY           SKY/WX    TMP DP  RH WIND       PRES   REMARKS
EVANSVILLE     PTCLDY    83  71  67 SW3       30.05R
HUNTINGBURG *+ PTCLDY    81  72  74 S3        30.06R

$$

INZ062-063-066-070>080-084-089>092-260200-
SOUTH CENTRAL AND SOUTHEAST INDIANA

CITY           SKY/WX    TMP DP  RH WIND       PRES   REMARKS
BLOOMINGTON    CLEAR     78  74  87 SW3       30.05S
MADISON *+     CLEAR     77  73  88 CALM      30.08S

$$





USA.gov is the U.S. government's official web portal to all federal, state and local government web resources and services.